Flag for Mexico Weather past 2 weeks in Puerto Vallarta, Jalisco, Mexico

Now
79 °F

Partly cloudy.


Feels Like: 82 °F
Forecast: 77 / 90 °F
Wind: 5 mph from Northeast

Location: Puerto Vallarta / Lic

Current Time: Aug 27, 2014 at 8:50:16 AM

Latest Report: Aug 27, 2014 at 7:46 AM


Visibility: 12 mi

Pressure: 29.89 "Hg

Humidity: 89%

Dew point: 75 °F

Location of Puerto VallartaLocation

Historic Weather in Puerto Vallarta — Graph

°F

Puerto Vallarta temperature yesterday

Maximum temperature yesterday: 90 °F (at 12:49 PM)
Minimum temperature yesterday: 73 °F (at 2:45 AM)
Average temperature yesterday: 81 °F

Past Weeks' High & Low Weather Summary

 TemperatureHumidityPressure
High91 °F (Aug 13, 1:50 PM)100% (Aug 23, 6:16 PM)29.98 "Hg (Aug 23, 6:16 PM)
Low34 °F (Aug 23, 6:16 PM)49% (Aug 13, 1:50 PM)29.79 "Hg (Aug 22, 5:48 PM)
Average80 °F79%29.89 "Hg
* Reported Aug 12 6:48 AM — Aug 27 6:48 AM, Puerto Vallarta, Weather by CustomWeather, © 2014

Note: Actual official high and low records may vary slightly from our data, if they occured in-between our weather recording intervals... More about our weather records

Advertising

Puerto Vallarta weather history for previous 24 hours

 ConditionsComfort  
Time TempWeatherWind HumidityBarometerVisibility
6:48 AM
Aug 27
79 °FLight rain. Mostly cloudy.No wind94%29.88 "Hg7 mi
5:48 AM79 °FMostly cloudy.6 mph89%29.88 "Hg8 mi
4:53 AM79 °FMostly cloudy.No wind94%29.87 "Hg8 mi
3:47 AM79 °FPartly cloudy.No wind89%29.85 "Hg8 mi
2:45 AM81 °FLight rain. Overcast.5 mph89%29.89 "Hg7 mi
1:45 AM81 °FThunderstorms. Mostly cloudy.5 mph89%29.89 "Hg7 mi
12:48 AM82 °FPassing clouds.3 mph84%29.87 "Hg10 mi
10:48 PM
Aug 26
82 °FMostly cloudy.No wind79%29.87 "Hg10 mi
9:47 PM84 °FMostly cloudy.No wind74%29.84 "Hg10 mi
8:46 PM84 °FMostly cloudy.No wind79%29.85 "Hg12 mi
7:46 PM86 °FMore clouds than sun.No wind70%29.84 "Hg15 mi
5:47 PM88 °FMostly cloudy.7 mph70%29.84 "Hg15 mi
3:46 PM90 °FBroken clouds.7 mph67%29.84 "Hg15 mi
2:45 PM90 °FScattered clouds.7 mph67%29.91 "Hg15 mi
1:47 PM88 °FPassing clouds.10 mph62%29.92 "Hg15 mi
12:49 PM90 °FSunny.3 mph59%29.90 "Hg15 mi
11:49 AM88 °FSunny.No wind59%29.93 "Hg15 mi
10:49 AM84 °FSunny.No wind70%29.93 "Hg15 mi
9:45 AM81 °FSunny.No wind74%29.88 "Hg15 mi
8:49 AM75 °FSunny.No wind89%29.90 "Hg15 mi
Weather by CustomWeather, © 2014

See weather overviewHow to use our weather pages